Location: Newark
(46.7000°N, 60.6000°W)
Time: 08:27:58
(UTC+00:00)

Vanguard 3 - Pass Details

Date: 04 November 2020
Orbit: 508 x 3262 km, 33.3° (Epoch: 29 November)

Event Time Altitude Azimuth Distance (km) Brightness Sun altitude
Rises 13:25:13 0° 276° (W) 6,950 11.5 20.1°
Reaches altitude 10° 13:30:29 10° 268° (W) 6,106 11.4 20.6°
Maximum altitude 13:46:11 31° 216° (SW) 4,527 11.4 22.1°
Drops below altitude 10° 14:00:07 10° 162° (SSE) 5,381 13.2 23.3°
Sets 14:04:27 0° 152° (SSE) 6,046 13.1 23.6°
